Regional Weather Roundup
Issued by NWS

Home | Current Version | Previous Version | Text Only | Print | Product List | Glossary On
Versions: 1 2 3 4 5 6 7 8 9 10 11 12 13 14 15 16 17 18 19 20 21 22 23 24 25 26 27
000
ASUS44 KLIX 182213
RWRLA
LOUISIANA WEATHER ROUNDUP
NATIONAL WEATHER SERVICE NEW ORLEANS LA
400 PM CST MON DEC 18 2017

NOTE: "FAIR" INDICATES FEW OR NO CLOUDS BELOW 12,000 FEET WITH NO
      SIGNIFICANT WEATHER AND/OR OBSTRUCTIONS TO VISIBILITY.
      SKY/WX - SKY CONDITION AND SIGNIFICANT WEATHER.
      TMP - AIR TEMPERATURE.    DP   - DEWPOINT TEMPERATURE.
      RH  - RELATIVE HUMIDITY.  PRES - PRESSURE.
      HX  - HEAT INDEX.         WCI  - WIND CHILL INDEX.

*  THESE STATIONS ARE NOT NWS OR FAA STATIONS AND ARE NOT UNDER
   NWS QUALITY CONTROL.

LAZ040-048-061>063-065-066-069-182300-
SOUTHEAST LOUISIANA

CITY           SKY/WX    TMP DP  RH WIND       PRES   REMARKS
N.O. INTL ARPT CLOUDY    70  67  90 NE5       30.17S
N.O. LAKEFRONT MOSUNNY   67  65  93 CALM      30.17F
N.O. DOWNTOWN* CLOUDY    70  66  87 E3        30.18S
RESERVE*       CLOUDY    69  65  87 E3        30.18R
SLIDELL        CLOUDY    70  65  84 N5        30.16F
BATON ROUGE    CLOUDY    67  64  90 E5        30.17F
BOOTHVILLE     PTSUNNY   75  72  90 NW6       30.17S FOG
BELLE CHASSE   CLOUDY    71  69  93 NE6       30.16S
BOGALUSA*      CLOUDY    68  64  87 MISG      30.18S
GALLIANO*      CLOUDY    71  66  82 N5        30.17R
NEW ROADS*     CLOUDY    67  63  89 CALM      30.18S
GONZALES*      CLOUDY    67  65  92 E3        30.17R
HAMMOND*       CLOUDY    64  64 100 CALM      30.17S
HOUMA*         NOT AVBL
PORT FOURCHON* NOT AVBL

$$

LAZ041-044-053-054-182300-
SOUTHWEST LOUISIANA

CITY           SKY/WX    TMP DP  RH WIND       PRES   REMARKS
LAKE CHARLES   CLOUDY    68  64  87 E10       30.14S
LAFAYETTE      CLOUDY    65  64  97 NE3       30.17S
PATTERSON      CLOUDY    67  66  97 E6        30.17S
SALT POINT       N/A     70  66  87 VRB3      30.15R
NEW IBERIA     CLOUDY    66  62  87 NE6       30.17R
CHENAULT AIRPK CLOUDY    68  63  83 E9G20     30.15S

$$

LAZ027-028-182300-
CENTRAL LOUISIANA

CITY           SKY/WX    TMP DP  RH WIND       PRES   REMARKS
FORT POLK      CLOUDY    64  60  86 NE3       30.16S
ALEXANDRIA INT CLOUDY    63  58  83 SE3       30.17R
ALEXANDRIA     CLOUDY    62  58  86 CALM      30.18R

$$

LAZ001-002-182300-
NORTHWEST LOUISIANA

CITY           SKY/WX    TMP DP  RH WIND       PRES   REMARKS
SHREVEPORT     CLOUDY    55  54  96 SE6       30.17S
BARKSDALE AFB  PTSUNNY   55  54  98 S2        30.17S
DTN SHREVEPORT CLOUDY    55  52  89 CALM      30.17F

$$

LAZ014-016-182300-
NORTHEAST LOUISIANA

CITY           SKY/WX    TMP DP  RH WIND       PRES   REMARKS
MONROE         CLOUDY    55  51  86 CALM      30.20F
TALLULAH       CLOUDY    60  56  86 CALM      30.19S

$$





USA.gov is the U.S. government's official web portal to all federal, state and local government web resources and services.